#timestamp,LO_Frequency,Hit 
1499205615.5,286047073.7,N
1499205635.3,286047074.1,N
1499205655.2,286047073.6,N
1499205675.9,286047074.0,N
1499205695.7,286047074.3,N
1499205715.6,286047072.4,N
1499205735.4,286047076.4,N
1499205755.2,286047075.7,N
1499205775.0,286047075.4,N
1499205776.0,286047075.4,N
1499205795.8,286047075.3,N
1499205815.6,286047075.2,N
1499205835.4,286047076.1,N
1499205855.3,286047077.0,N
1499205875.1,286047077.4,N
1499205895.8,286047077.9,N
1499205915.7,286047077.8,N
1499205935.5,286047077.2,N
1499205955.3,286047078.5,N
1499205975.2,286047081.2,N
1499205995.9,286047079.4,N
1499206015.7,286047078.2,N
1499206035.6,286047080.6,N
1499206055.4,286047080.6,N
1499206075.2,286047078.0,N
1499206095.0,286047078.0,N
1499206096.0,286047078.0,N
1499206115.8,286047077.0,N
1499206135.6,286047081.1,N
1499206155.4,286047079.2,N
1499206175.3,286047080.4,N
1499206195.1,286047079.8,N
1499206215.8,286047078.3,N
1499206235.7,286047080.9,N
1499206255.5,286047080.2,N
1499206275.3,286047079.8,N
1499206295.2,286047079.7,N
1499206315.9,286047081.7,N
1499206335.7,286047083.2,N
1499206355.6,286047083.8,N
1499206375.4,286047082.2,N
1499206395.2,286047082.9,N
1499206415.1,286047085.4,N
1499206416.0,286047085.4,N
1499206435.8,286047084.7,N
1499206455.6,286047085.1,N
1499206475.4,286047089.1,N
1499206495.3,286047088.3,N
1499206515.1,286047089.2,N
1499206535.8,286047088.8,N
1499206555.7,286047088.8,N
1499206575.5,286047087.9,N
1499206595.3,286047090.7,N
1499206615.2,286047090.3,N
1499206635.9,286047088.3,N
1499206655.7,286047088.5,N
1499206675.6,286047088.5,N
1499206695.4,286047090.7,N
1499206715.2,286047089.4,N
1499206735.1,286047091.6,N
1499206736.0,286047091.6,N
1499206755.8,286047091.2,N
1499206775.6,286047090.5,N
1499206795.4,286047089.8,N
1499206815.3,286047088.0,N
1499206835.1,286047087.7,N
1499206855.8,286047088.7,N
1499206875.7,286047089.0,N
1499206895.5,286047090.4,N
1499206915.3,286047089.7,N
1499206935.2,286047090.4,N
1499206955.9,286047088.7,N
1499206975.7,286047088.2,N
1499206995.6,286047088.9,N
1499207015.4,286047088.7,N
1499207035.2,286047087.7,N
1499207055.1,286047089.9,N
1499207056.0,286047089.9,N
1499207075.8,286047091.7,N
1499207095.6,286047091.6,N
1499207115.5,286047092.8,N
1499207135.3,286047092.8,N
1499207155.1,286047092.6,N
1499207175.8,286047093.9,N
1499207195.7,286047093.9,N
1499207215.5,286047093.2,N
1499207235.3,286047095.6,N
1499207255.2,286047094.4,N
1499207275.0,286047094.7,N
1499207275.9,286047094.7,N
1499207295.7,286047092.6,N
1499207315.6,286047094.7,N
1499207335.4,286047093.3,N
1499207355.2,286047095.6,N
1499207375.1,286047093.1,N
1499207376.0,286047093.1,N
1499207395.8,286047095.1,N
1499207415.6,286047095.5,N
1499207435.5,286047095.1,N
1499207455.3,286047096.7,N
1499207475.1,286047095.4,N
1499207495.9,286047093.0,N
1499207515.7,286047092.9,N
1499207535.5,286047095.5,N
1499207555.4,286047094.9,N
1499207575.2,286047094.8,N
1499207595.0,286047096.3,N
1499207595.9,286047096.3,N
1499207615.8,286047095.8,N
1499207635.6,286047099.9,N
1499207655.4,286047098.0,N
1499207675.2,286047098.9,N
1499207695.1,286047101.5,Y
1499207696.0,286047101.5,Y
1499207715.8,286047008.2,N
1499207735.7,286047009.5,N
1499207755.5,286047009.3,N
1499207775.3,286047010.1,N
1499207795.2,286047010.5,N
1499207815.9,286047006.5,N
1499207835.7,286047008.2,N
1499207855.6,286047006.6,N
1499207875.4,286047006.5,N
1499207895.2,286047008.4,N
1499207915.0,286047006.1,N
1499207916.0,286047006.1,N
1499207935.8,286047003.0,N
1499207955.6,286047006.7,N
1499207975.4,286047008.2,N
1499207995.3,286047010.2,N
1499208015.1,286047009.9,N
1499208035.8,286047009.6,N
1499208055.7,286047009.6,N
1499208075.5,286047010.2,N
1499208095.3,286047011.9,N
1499208115.2,286047011.9,N
1499208135.9,286047009.2,N
1499208155.7,286047006.3,N
1499208175.6,286047006.9,N
1499208195.4,286047006.8,N
1499208215.2,286047005.6,N
1499208235.0,286047005.2,N
1499208236.0,286047005.2,N
1499208255.8,286047005.8,N
1499208275.6,286047001.5,N
1499208295.4,286047005.2,N
1499208315.3,286047006.4,N
1499208335.1,286047008.2,N
1499208355.8,286047007.8,N
1499208375.7,286047007.3,N
1499208395.5,286047005.7,N
1499208415.3,286047005.1,N
1499208435.2,286047005.3,N
1499208455.9,286047003.3,N
1499208475.7,286047006.0,N
1499208495.6,286047001.3,N
1499208515.4,286047003.9,N
1499208535.2,286047002.9,N
1499208555.1,286047004.6,N
1499208556.0,286047004.6,N
1499208575.8,286047005.1,N
1499208595.6,286047004.8,N
1499208615.4,286047003.8,N
1499208635.3,286047003.6,N
1499208655.1,286047001.4,N
1499208675.8,286047003.8,N
1499208695.7,286047001.3,N
1499208715.5,286047005.8,N
1499208735.3,286047004.6,N
1499208755.2,286047004.7,N
1499208775.9,286047005.8,N
1499208795.7,286047004.5,N
1499208815.6,286047005.4,N
1499208835.4,286047005.7,N
1499208855.2,286047004.8,N
1499208875.1,286047005.3,N
1499208876.0,286047005.3,N
1499208895.8,286047008.8,N
1499208915.6,286047006.1,N
1499208935.5,286047006.6,N
1499208955.3,286047007.3,N
1499208975.1,286047008.7,N
1499208995.9,286047006.3,N
1499209015.7,286047009.2,N
1499209035.5,286047012.4,N
1499209055.3,286047011.1,N
1499209075.2,286047014.9,N
1499209095.0,286047016.7,N
1499209095.9,286047016.7,N
1499209115.7,286047014.2,N
1499209135.6,286047014.4,N
1499209155.4,286047017.0,N
1499209175.2,286047016.1,N
1499209195.1,286047016.2,N
1499209196.0,286047016.2,N
